GW0319 Weather Reports


Display with metric or nautical units.
time (UTC)temp
F
wind
direction
speed
MPH
gust
MPH
rain 1hr
in
rain 24hr
in
rain mn
in
humidity
%
barometer
mb
20260507063416 53 0 0.0 0.0 0.00 0.00 0.00 87 1019.1
20260507062915 53 0 0.0 0.0 0.00 0.00 0.00 87 1019.1
20260507062419 52 0 0.0 0.0 0.00 0.00 0.00 86 1018.9
20260507061918 52 113 2.0 2.0 0.00 0.00 0.00 86 1018.7
20260507061417 52 0 0.0 0.0 0.00 0.00 0.00 86 1018.8
20260507060916 53 0 0.0 0.0 0.00 0.00 0.00 86 1018.9
20260507060419 53 0 0.0 1.0 0.00 0.00 0.00 86 1018.8
20260507060019 53 0 0.0 0.0 0.00 0.00 0.00 85 1019.1
20260507055418 53 0 0.0 0.0 0.00 0.00 0.00 85 1018.9
20260507054916 53 0 0.0 0.0 0.00 0.00 0.00 85 1018.7
20260507054420 53 0 0.0 1.0 0.00 0.00 0.00 85 1018.9
20260507053918 53 0 0.0 0.0 0.00 0.00 0.00 85 1018.9
20260507053417 53 0 0.0 1.0 0.00 0.00 0.00 85 1018.8
20260507052936 53 147 1.0 2.0 0.00 0.00 0.00 85 1018.8
20260507052420 53 0 0.0 0.0 0.00 0.00 0.00 85 1019.0
20260507051939 53 0 0.0 0.0 0.00 0.00 0.00 84 1018.8
20260507051417 53 182 0.0 1.0 0.00 0.00 0.00 84 1018.7
20260507050916 54 0 0.0 0.0 0.00 0.00 0.00 84 1018.8
20260507050419 54 0 0.0 1.0 0.00 0.00 0.00 84 1018.7
20260507045918 54 0 0.0 0.0 0.00 0.00 0.00 84 1018.9
20260507045418 54 185 1.0 2.0 0.00 0.00 0.00 83 1018.8
20260507044916 54 167 1.0 2.0 0.00 0.00 0.00 83 1018.8
20260507044421 54 220 0.0 1.0 0.00 0.00 0.00 83 1018.7
20260507043919 55 145 1.0 2.0 0.00 0.00 0.00 83 1018.9
20260507043417 55 184 1.0 2.0 0.00 0.00 0.00 83 1018.7
20260507042916 55 189 2.0 2.0 0.00 0.00 0.00 83 1018.8
20260507042420 55 160 3.0 4.0 0.00 0.00 0.00 83 1018.7
20260507041919 55 168 2.0 3.0 0.00 0.00 0.00 83 1018.8
20260507041417 55 201 1.0 2.0 0.00 0.00 0.00 83 1018.9
20260507040939 55 191 2.0 3.0 0.00 0.00 0.00 83 1018.7
20260507040419 55 147 2.0 3.0 0.00 0.00 0.00 83 1018.7
20260507035918 55 196 3.0 4.0 0.00 0.00 0.00 83 1018.6
20260507035417 55 208 2.0 3.0 0.00 0.00 0.00 83 1018.6
20260507034916 55 199 2.0 3.0 0.00 0.00 0.00 82 1018.5
20260507034419 55 202 1.0 2.0 0.00 0.00 0.00 82 1018.6
20260507033919 55 214 2.0 4.0 0.00 0.00 0.00 82 1018.5
20260507033417 56 180 2.0 2.0 0.00 0.00 0.00 81 1018.5
20260507032917 56 169 2.0 2.0 0.00 0.00 0.00 81 1018.5
20260507032419 56 183 1.0 3.0 0.00 0.00 0.00 80 1018.7
20260507031918 56 176 2.0 3.0 0.00 0.00 0.00 80 1018.4
20260507030916 56 136 3.0 5.0 0.00 0.00 0.00 79 1018.4
20260507030419 56 197 2.0 2.0 0.00 0.00 0.00 79 1018.4
20260507025919 57 217 1.0 2.0 0.00 0.00 0.00 80 1018.4
20260507025417 57 210 2.0 4.0 0.00 0.00 0.00 79 1018.5
20260507024916 57 187 2.0 3.0 0.00 0.00 0.00 78 1018.5
20260507024419 57 211 3.0 3.0 0.00 0.00 0.00 78 1018.4
20260507023918 58 205 2.0 3.0 0.00 0.00 0.00 78 1018.5
20260507023417 58 203 2.0 3.0 0.00 0.00 0.00 77 1018.6
20260507022915 58 167 1.0 2.0 0.00 0.00 0.00 77 1018.3
20260507022419 59 228 1.0 4.0 0.00 0.00 0.00 77 1018.3
20260507021917 59 238 2.0 3.0 0.00 0.00 0.00 76 1018.2
20260507021417 59 213 3.0 5.0 0.00 0.00 0.00 75 1018.3
20260507020916 60 185 1.0 2.0 0.00 0.00 0.00 75 1018.3
20260507020420 61 198 2.0 3.0 0.00 0.00 0.00 73 1018.2
20260507015918 61 196 1.0 2.0 0.00 0.00 0.00 73 1018.3
20260507015417 62 172 1.0 3.0 0.00 0.00 0.00 72 1018.4
20260507014916 62 185 2.0 3.0 0.00 0.00 0.00 72 1018.2
20260507014420 62 202 1.0 2.0 0.00 0.00 0.00 71 1018.1
20260507013917 63 208 3.0 4.0 0.00 0.00 0.00 70 1018.2
20260507013417 63 185 2.0 2.0 0.00 0.00 0.00 70 1018.1
20260507012915 64 198 2.0 5.0 0.00 0.00 0.00 69 1018.1
20260507012420 64 176 2.0 4.0 0.00 0.00 0.00 69 1018.3
20260507011918 65 155 2.0 3.0 0.00 0.00 0.00 68 1018.3
20260507011437 65 171 1.0 3.0 0.00 0.00 0.00 67 1018.3
20260507010915 66 155 2.0 4.0 0.00 0.00 0.00 67 1018.1
20260507010419 66 156 1.0 3.0 0.00 0.00 0.00 67 1018.2
20260507005918 67 192 2.0 2.0 0.00 0.00 0.00 67 1018.1
20260507005418 67 188 2.0 2.0 0.00 0.00 0.00 66 1018.2
20260507004937 67 171 2.0 3.0 0.00 0.00 0.00 67 1017.9
20260507004439 67 193 2.0 4.0 0.00 0.00 0.00 66 1018.1
20260507003917 68 156 2.0 3.0 0.00 0.00 0.00 65 1018.1
20260507003416 68 176 2.0 3.0 0.00 0.00 0.00 64 1018.0
20260507002920 68 159 2.0 5.0 0.00 0.00 0.00 64 1017.8
20260507002439 69 164 2.0 4.0 0.00 0.00 0.00 63 1018.2
20260507001917 69 237 3.0 6.0 0.00 0.00 0.00 63 1017.9
20260507001416 70 171 3.0 4.0 0.00 0.00 0.00 63 1018.0
20260507000919 70 160 3.0 5.0 0.00 0.00 0.00 62 1018.1
20260507000420 70 159 3.0 5.0 0.00 0.00 0.00 62 1018.0
20260506235916 70 179 2.0 4.0 0.00 0.00 0.00 61 1018.0
20260506235420 71 194 1.0 4.0 0.00 0.00 0.00 60 1018.2
20260506234918 72 195 2.0 3.0 0.00 0.00 0.00 60 1018.1
20260506234417 72 177 2.0 4.0 0.00 0.00 0.00 59 1018.2
20260506233915 73 172 2.0 5.0 0.00 0.00 0.00 58 1018.1
20260506233420 73 180 2.0 4.0 0.00 0.00 0.00 57 1018.3
20260506232918 74 210 3.0 6.0 0.00 0.00 0.00 58 1018.1
20260506232437 74 183 2.0 4.0 0.00 0.00 0.00 57 1018.0
20260506231916 74 160 3.0 5.0 0.00 0.00 0.00 57 1018.1
20260506231420 75 143 2.0 3.0 0.00 0.00 0.00 56 1017.9
20260506230918 75 239 3.0 6.0 0.00 0.00 0.00 57 1018.2
20260506230457 75 155 3.0 6.0 0.00 0.00 0.00 57 1018.2
20260506225937 75 208 2.0 3.0 0.00 0.00 0.00 57 1018.2
20260506225420 75 201 2.0 3.0 0.00 0.00 0.00 57 1018.2
20260506224918 76 157 2.0 3.0 0.00 0.00 0.00 56 1018.4
20260506224437 76 219 3.0 4.0 0.00 0.00 0.00 56 1018.4
20260506223936 76 174 2.0 3.0 0.00 0.00 0.00 58 1018.2
20260506223419 76 154 3.0 5.0 0.00 0.00 0.00 58 1018.3
20260506222939 75 205 2.0 2.0 0.00 0.00 0.00 59 1018.4
20260506222438 75 163 3.0 4.0 0.00 0.00 0.00 59 1018.4
20260506221915 75 217 2.0 4.0 0.00 0.00 0.00 59 1018.4
20260506221439 74 185 2.0 5.0 0.00 0.00 0.00 60 1018.5
20260506220918 74 161 3.0 4.0 0.00 0.00 0.00 60 1018.5
20260506220418 74 157 2.0 4.0 0.00 0.00 0.00 60 1018.6
20260506215916 74 141 1.0 2.0 0.00 0.00 0.00 59 1018.6
20260506215419 75 132 1.0 3.0 0.00 0.00 0.00 58 1018.9
20260506214918 75 199 1.0 3.0 0.00 0.00 0.00 60 1018.6
20260506214417 74 181 2.0 2.0 0.00 0.00 0.00 58 1018.6
20260506213915 75 127 2.0 3.0 0.00 0.00 0.00 56 1018.9
20260506213419 75 273 1.0 2.0 0.00 0.00 0.00 54 1018.8
20260506212918 75 148 3.0 4.0 0.00 0.00 0.00 53 1018.6
20260506212416 75 128 4.0 6.0 0.00 0.00 0.00 53 1018.8
20260506211915 75 135 4.0 6.0 0.00 0.00 0.00 53 1018.8
20260506211439 75 201 1.0 2.0 0.00 0.00 0.00 52 1018.9
20260506210917 75 172 2.0 4.0 0.00 0.00 0.00 53 1018.8
20260506210416 75 34 1.0 2.0 0.00 0.00 0.00 54 1019.0
20260506205915 74 145 5.0 6.0 0.00 0.00 0.00 53 1019.1
20260506205419 74 201 2.0 6.0 0.00 0.00 0.00 53 1018.9
20260506204918 74 130 7.0 11.0 0.00 0.00 0.00 53 1019.1
20260506204416 74 182 1.0 2.0 0.00 0.00 0.00 56 1019.0
20260506203915 75 216 2.0 3.0 0.00 0.00 0.00 53 1019.2
20260506203419 75 112 5.0 6.0 0.00 0.00 0.00 56 1019.2
20260506202938 74 182 2.0 3.0 0.00 0.00 0.00 58 1019.2
20260506202417 74 148 3.0 6.0 0.00 0.00 0.00 56 1019.4
20260506201915 73 153 3.0 3.0 0.00 0.00 0.00 59 1019.3
20260506201419 72 180 3.0 3.0 0.00 0.00 0.00 57 1019.4
20260506200917 72 191 3.0 4.0 0.00 0.00 0.00 59 1019.6
20260506200417 72 125 4.0 6.0 0.00 0.00 0.00 57 1019.6
20260506195920 72 180 3.0 4.0 0.00 0.00 0.00 58 1019.5
20260506195419 72 156 5.0 10.0 0.00 0.00 0.00 60 1019.6
20260506194918 72 124 2.0 4.0 0.00 0.00 0.00 60 1019.7
20260506194416 72 143 4.0 6.0 0.00 0.00 0.00 59 1019.5
20260506193920 72 137 3.0 4.0 0.00 0.00 0.00 59 1019.7
20260506193439 72 137 4.0 5.0 0.00 0.00 0.00 60 1019.6
20260506192917 73 110 3.0 6.0 0.00 0.00 0.00 58 1019.8
20260506192416 74 135 3.0 5.0 0.00 0.00 0.00 59 1019.8
20260506191920 73 170 3.0 4.0 0.00 0.00 0.00 62 1019.9
20260506191418 72 121 6.0 8.0 0.00 0.00 0.00 62 1020.0
20260506190937 71 152 3.0 4.0 0.00 0.00 0.00 62 1019.8
20260506190416 71 182 2.0 3.0 0.00 0.00 0.00 62 1020.0
20260506185920 71 132 3.0 6.0 0.00 0.00 0.00 65 1020.2
20260506185419 70 139 3.0 5.0 0.00 0.00 0.00 65 1020.1
20260506184917 70 208 3.0 3.0 0.00 0.00 0.00 65 1020.2
20260506184416 69 166 3.0 5.0 0.00 0.00 0.00 69 1020.0
20260506183920 68 220 1.0 2.0 0.00 0.00 0.00 68 1020.1
20260506183418 67 110 2.0 3.0 0.00 0.00 0.00 70 1020.2
20260506182917 66 168 1.0 2.0 0.00 0.00 0.00 71 1020.2
20260506182436 66 226 0.0 2.0 0.00 0.00 0.00 70 1020.4
20260506181920 66 209 2.0 2.0 0.00 0.00 0.00 73 1020.0
20260506181418 66 74 1.0 2.0 0.00 0.00 0.00 72 1020.0
20260506180917 66 0 0.0 0.0 0.00 0.00 0.00 71 1020.1
20260506180415 66 129 3.0 4.0 0.00 0.00 0.00 71 1020.3
20260506175919 67 162 2.0 3.0 0.00 0.00 0.00 71 1020.2
20260506175419 67 159 1.0 3.0 0.00 0.00 0.00 72 1020.1
20260506174917 66 168 2.0 3.0 0.00 0.00 0.00 72 1020.1
20260506174440 66 220 2.0 2.0 0.00 0.00 0.00 70 1020.2
20260506173918 65 182 2.0 2.0 0.00 0.00 0.00 73 1020.2
20260506173417 65 130 4.0 6.0 0.00 0.00 0.00 73 1020.1
20260506172916 64 135 5.0 7.0 0.00 0.00 0.00 74 1020.2
20260506172419 64 193 2.0 3.0 0.00 0.00 0.00 74 1020.3
20260506171918 63 170 2.0 3.0 0.00 0.00 0.00 76 1020.1
20260506171437 63 155 3.0 6.0 0.00 0.00 0.00 75 1020.3
20260506170936 63 167 4.0 5.0 0.00 0.00 0.00 76 1020.2
20260506170440 63 150 2.0 4.0 0.00 0.00 0.00 75 1020.2
20260506165918 62 187 1.0 2.0 0.00 0.00 0.00 76 1020.4
20260506165437 61 136 5.0 6.0 0.00 0.00 0.00 79 1020.4
20260506164936 61 228 2.0 3.0 0.00 0.00 0.00 77 1020.4
20260506164420 61 128 2.0 5.0 0.00 0.00 0.00 78 1020.2
20260506163958 60 141 4.0 6.0 0.00 0.00 0.00 81 1020.1
20260506163417 59 224 2.0 3.0 0.00 0.00 0.00 81 1020.1
20260506162915 59 177 1.0 2.0 0.00 0.00 0.00 82 1020.2
20260506162419 59 140 3.0 4.0 0.00 0.00 0.00 83 1020.2
20260506161918 58 106 1.0 4.0 0.00 0.00 0.00 84 1020.4
20260506161416 58 147 2.0 3.0 0.00 0.00 0.00 83 1020.3
20260506160916 58 207 2.0 3.0 0.00 0.00 0.00 83 1020.2
20260506160419 57 198 2.0 3.0 0.00 0.00 0.00 84 1020.6
20260506155918 57 150 3.0 5.0 0.00 0.00 0.00 86 1020.4
20260506155417 57 145 5.0 6.0 0.00 0.00 0.00 86 1020.4
20260506154916 56 176 2.0 2.0 0.00 0.00 0.00 86 1020.3
20260506154420 56 140 3.0 4.0 0.00 0.00 0.00 87 1020.2
20260506153918 56 174 0.0 2.0 0.00 0.00 0.00 88 1020.4
20260506153416 56 193 1.0 2.0 0.00 0.00 0.00 88 1020.4
20260506152916 55 173 2.0 3.0 0.00 0.00 0.00 89 1020.3
20260506152419 55 0 0.0 1.0 0.00 0.00 0.00 89 1020.3
20260506151939 55 0 0.0 1.0 0.00 0.00 0.00 89 1020.3
20260506151417 55 0 0.0 0.0 0.00 0.00 0.00 90 1020.1
20260506150936 55 0 0.0 0.0 0.00 0.00 0.00 90 1020.1
20260506150420 54 0 0.0 1.0 0.00 0.00 0.00 90 1020.0
20260506145918 54 0 0.0 0.0 0.00 0.00 0.00 90 1020.2
20260506145437 54 199 1.0 2.0 0.00 0.00 0.00 90 1020.2
20260506144915 54 191 1.0 2.0 0.00 0.00 0.00 90 1020.3
20260506144419 54 147 0.0 1.0 0.00 0.00 0.00 90 1020.2
20260506143918 54 206 1.0 2.0 0.00 0.00 0.00 91 1020.4
20260506143417 54 189 1.0 2.0 0.00 0.00 0.00 91 1020.1
20260506142916 54 148 1.0 2.0 0.00 0.00 0.00 91 1020.1
20260506142419 54 182 1.0 2.0 0.00 0.00 0.00 92 1020.0
20260506141918 54 199 1.0 2.0 0.00 0.00 0.00 92 1020.1
20260506141437 53 201 1.0 2.0 0.00 0.01 0.00 92 1020.3
20260506140915 53 188 1.0 2.0 0.00 0.01 0.00 92 1020.0
20260506140419 53 190 1.0 2.0 0.00 0.01 0.00 92 1020.0
20260506135918 53 171 1.0 2.0 0.00 0.01 0.00 92 1019.9
20260506135417 53 147 1.0 2.0 0.00 0.01 0.00 92 1019.8
20260506134916 53 0 0.0 1.0 0.00 0.01 0.00 92 1019.8
20260506134419 53 0 0.0 1.0 0.00 0.01 0.00 92 1019.8
20260506133919 53 0 0.0 2.0 0.00 0.01 0.00 92 1020.0
20260506133438 53 118 1.0 2.0 0.00 0.01 0.00 92 1020.0
20260506132916 53 201 0.0 1.0 0.00 0.01 0.00 92 1019.8
20260506132420 53 183 1.0 2.0 0.00 0.01 0.00 92 1019.7
20260506131919 53 0 0.0 1.0 0.00 0.01 0.00 92 1019.7
20260506131417 53 0 0.0 0.0 0.00 0.01 0.00 92 1019.5
20260506130916 53 0 0.0 1.0 0.00 0.01 0.00 92 1019.6
20260506130419 53 0 0.0 2.0 0.00 0.01 0.00 92 1019.6
20260506125918 53 0 0.0 0.0 0.00 0.01 0.00 92 1019.6
20260506125417 53 0 0.0 1.0 0.00 0.01 0.00 92 1019.8
20260506124916 53 120 0.0 2.0 0.00 0.01 0.00 92 1019.4
20260506124440 53 0 0.0 0.0 0.00 0.01 0.00 92 1019.5
20260506123919 52 0 0.0 0.0 0.00 0.01 0.00 92 1019.3
20260506123438 52 0 0.0 0.0 0.00 0.01 0.00 91 1019.4
20260506122937 52 0 0.0 1.0 0.00 0.01 0.00 91 1019.5
20260506122420 52 0 0.0 1.0 0.00 0.01 0.00 91 1019.5
20260506121919 52 0 0.0 0.0 0.00 0.01 0.00 91 1019.4
20260506121418 52 0 0.0 0.0 0.00 0.01 0.00 91 1019.3
20260506120917 52 204 0.0 1.0 0.00 0.01 0.00 91 1019.2
20260506120420 52 0 0.0 1.0 0.00 0.01 0.00 91 1019.3
20260506115919 52 0 0.0 0.0 0.00 0.01 0.00 91 1019.2
20260506115417 52 0 0.0 0.0 0.00 0.01 0.00 91 1019.2
20260506114916 52 0 0.0 0.0 0.00 0.01 0.00 91 1019.2
20260506114456 52 226 0.0 1.0 0.00 0.01 0.00 91 1019.2
20260506113919 52 0 0.0 0.0 0.00 0.01 0.00 91 1019.2
20260506113418 52 0 0.0 0.0 0.00 0.01 0.00 91 1019.2
20260506112917 52 0 0.0 0.0 0.00 0.01 0.00 91 1019.2
20260506112415 52 0 0.0 1.0 0.00 0.01 0.00 91 1019.1
20260506111919 52 0 0.0 1.0 0.00 0.01 0.00 91 1019.1
20260506111417 52 0 0.0 1.0 0.00 0.01 0.00 91 1019.0
20260506110917 52 0 0.0 1.0 0.00 0.01 0.00 91 1019.0
20260506110415 52 0 0.0 0.0 0.00 0.01 0.00 91 1019.1
20260506105920 52 132 0.0 1.0 0.00 0.01 0.00 91 1019.0
20260506105418 52 0 0.0 2.0 0.00 0.01 0.00 91 1019.0
20260506104917 52 0 0.0 1.0 0.00 0.01 0.00 91 1018.8
20260506104436 52 0 0.0 0.0 0.00 0.01 0.00 91 1018.8
20260506103920 52 0 0.0 1.0 0.00 0.01 0.00 91 1018.8
20260506103418 51 0 0.0 1.0 0.00 0.01 0.00 91 1018.9
20260506102917 51 0 0.0 1.0 0.00 0.01 0.00 91 1018.6
20260506102436 51 137 1.0 1.0 0.00 0.01 0.00 91 1018.8
20260506101919 51 216 0.0 2.0 0.00 0.01 0.00 91 1018.7
20260506101418 51 0 0.0 1.0 0.00 0.01 0.00 91 1018.6
20260506100917 51 183 0.0 1.0 0.00 0.01 0.00 91 1018.7
20260506100416 51 0 0.0 0.0 0.00 0.01 0.00 91 1018.7
20260506095919 51 0 0.0 0.0 0.00 0.01 0.00 91 1019.0
20260506095418 51 0 0.0 0.0 0.00 0.01 0.00 91 1018.6
20260506094917 51 0 0.0 0.0 0.00 0.01 0.00 91 1018.6
20260506094436 51 0 0.0 1.0 0.00 0.01 0.00 91 1018.7
20260506093940 51 0 0.0 0.0 0.00 0.01 0.00 91 1018.8
20260506093418 50 204 0.0 1.0 0.00 0.01 0.00 91 1018.7
20260506092916 50 0 0.0 0.0 0.00 0.01 0.00 91 1018.8
20260506092416 50 0 0.0 1.0 0.00 0.01 0.00 91 1018.7
20260506091920 50 0 0.0 1.0 0.00 0.01 0.00 91 1018.8
20260506091419 50 0 0.0 0.0 0.00 0.01 0.00 91 1018.7
20260506090917 50 0 0.0 0.0 0.00 0.01 0.00 91 1018.8
20260506090416 50 212 0.0 1.0 0.00 0.02 0.00 91 1018.8
20260506085920 50 201 0.0 1.0 0.00 0.02 0.00 91 1018.6
20260506085418 50 0 0.0 0.0 0.00 0.02 0.00 91 1018.9
20260506083940 49 0 0.0 1.0 0.00 0.03 0.00 91 1018.9
20260506083418 49 0 0.0 0.0 0.00 0.03 0.00 91 1019.0
20260506082938 49 0 0.0 1.0 0.00 0.03 0.00 91 1018.9
20260506082416 49 0 0.0 0.0 0.00 0.03 0.00 91 1018.8
20260506081940 49 211 0.0 1.0 0.00 0.03 0.00 91 1018.7
20260506081418 48 0 0.0 1.0 0.00 0.03 0.00 90 1018.8
20260506080917 48 0 0.0 1.0 0.00 0.04 0.00 90 1018.7
20260506080437 48 0 0.0 0.0 0.00 0.04 0.00 90 1018.8
20260506073419 48 206 0.0 1.0 0.00 0.06 0.00 90 1018.5
20260506072917 48 230 1.0 2.0 0.00 0.07 0.00 90 1018.6
20260506072416 48 234 0.0 1.0 0.00 0.07 0.00 90 1018.5
20260506071920 48 0 0.0 1.0 0.00 0.08 0.00 90 1018.4
20260506071419 48 213 0.0 1.0 0.00 0.08 0.00 89 1018.4
20260506070917 48 0 0.0 1.0 0.00 0.08 0.00 89 1018.2
20260506070417 48 0 0.0 1.0 0.00 0.08 0.00 89 1018.6